Ketchikan, AK

7:32 AM AKST on November 15, 2018 (GMT -0900)
Ketchikan International

Weather History for PAKT - August, 2018

Change the Weather History Date:

Thursday, August 16, 2018

  Actual Average Record
Temperature  
Mean Temperature 60 °F -  
Max Temperature 66 °F 66 °F 86 °F (1957)
Min Temperature 53 °F 52 °F 40 °F (1973)
Degree Days  
Heating Degree Days 6    
Growing Degree Days 10 (Base 50)    
Moisture  
Dew Point 48 °F    
Average Humidity 70    
Maximum Humidity 83    
Minimum Humidity 45    
Precipitation  
Precipitation 0.00 in - - ()
Sea Level Pressure  
Sea Level Pressure 30.13 in    
Wind  
Wind Speed 8 mph (NNW)    
Max Wind Speed 10 mph    
Max Gust Speed -    
Visibility 10 miles    
Events      
Averages and records for this station are not official NWS values.
T = Trace of Precipitation, MM = Missing Value Source: NWS Daily Summary

Daily Weather History Graph

Daily Weather History Graph

Search for Another Location

Airport or City:

Astronomy

Aug. 16, 2018 Rise Set
Actual Time 5:22 AM AKDT 8:18 PM AKDT
Civil Twilight 4:40 AM AKDT 9:00 PM AKDT
Nautical Twilight 3:44 AM AKDT 9:55 PM AKDT
Astronomical Twilight 2:28 AM AKDT 11:09 PM AKDT
Moon 12:21 PM AKDT (8/16) 10:46 PM AKDT (8/16)
Length of Visible Light 16h 20m
Length of Day
14h 56m
Waxing Crescent, 35% of the Moon is Illuminated
Aug 16
Waxing Crescent
Aug 17
First Quarter
Aug 26
Full
Sep 2
Last Quarter
Sep 9
New

Hourly Weather History & Observations

Time (AKDT) Temp. Dew Point Humidity Pressure Visibility Wind Dir Wind Speed Gust Speed Precip Events Conditions
12:53 AM 55.0 °F 48.0 °F 77% 30.06 in 10.0 mi NNW 9.2 mph - N/A   Clear
1:53 AM 55.0 °F 48.0 °F 77% 30.06 in 10.0 mi NNW 9.2 mph - N/A   Clear
2:53 AM 54.0 °F 46.0 °F 75% 30.06 in 10.0 mi NW 6.9 mph - N/A   Clear
3:53 AM 54.0 °F 46.9 °F 77% 30.06 in 10.0 mi NNW 6.9 mph - N/A   Clear
4:53 AM 53.1 °F 48.0 °F 83% 30.08 in 10.0 mi NNW 5.8 mph - N/A   Clear
5:53 AM 54.0 °F 48.9 °F 83% 30.08 in 10.0 mi NNW 5.8 mph - N/A   Clear
6:53 AM 55.0 °F 48.9 °F 80% 30.09 in 10.0 mi NNW 5.8 mph - N/A   Clear
7:53 AM 55.4 °F 48.2 °F 77% 30.10 in 10.0 mi NNW 8.1 mph - N/A   Clear
8:53 AM 57.2 °F 48.2 °F 72% 30.11 in 10.0 mi NNW 10.4 mph - N/A   Clear
9:53 AM 57.2 °F 48.2 °F 72% 30.11 in 10.0 mi NNW 10.4 mph - N/A   Clear
10:53 AM 59.0 °F 48.2 °F 67% 30.13 in 10.0 mi North 10.4 mph - N/A   Clear
11:53 AM 60.1 °F 48.9 °F 67% 30.13 in 10.0 mi NNW 8.1 mph - N/A   Clear
12:53 PM 62.6 °F 48.2 °F 59% 30.14 in 10.0 mi NNW 10.4 mph - N/A   Clear
1:53 PM 62.6 °F 48.2 °F 59% 30.15 in 10.0 mi NNW 10.4 mph - N/A   Clear
2:53 PM 64.4 °F 46.4 °F 52% 30.15 in 10.0 mi NNW 9.2 mph - N/A   Clear
3:53 PM 66.2 °F 44.6 °F 46% 30.15 in 10.0 mi North 4.6 mph - N/A   Clear
4:53 PM 64.4 °F 42.8 °F 45% 30.15 in 10.0 mi NW 4.6 mph - N/A   Clear
5:53 PM 64.4 °F 46.4 °F 52% 30.15 in 10.0 mi ESE 10.4 mph - N/A   Clear
6:53 PM 60.8 °F 48.2 °F 63% 30.16 in 10.0 mi ESE 10.4 mph - N/A   Clear
7:53 PM 57.2 °F 50.0 °F 77% 30.17 in 10.0 mi South 5.8 mph - N/A   Clear
8:53 PM 55.9 °F 48.0 °F 75% 30.18 in 10.0 mi South 4.6 mph - N/A   Overcast
9:53 PM 55.0 °F 48.9 °F 80% 30.19 in 10.0 mi Calm Calm - N/A   Overcast
10:53 PM 54.0 °F 46.9 °F 77% 30.20 in 10.0 mi South 4.6 mph - N/A   Clear
11:43 PM 54.0 °F 48.0 °F 80% 30.19 in 10.0 mi SSE 5.8 mph - N/A   Mostly Cloudy
11:53 PM 55.0 °F 48.0 °F 77% 30.19 in 10.0 mi South 4.6 mph - N/A   Scattered Clouds